Meteo Giornale » Osservazioni meteo Sri Lanka » Katunayake
ore: 22:40 - Osservazioni Meteo Katunayake
Lat. 7° 10' N Lon. 79° 53' E Alt. 8 metri s.l.m.
28 °C
Molto Nuvoloso
Temp. 24 Ore
27 °C
31 °C
Sud-Ovest
14.8 Km/h
Dew point 25 °C
Umidità 83 %
Visibilità 10 Km
Il sole sorge alle ore 06:03
Il sole tramonta alle ore 18:18
| Data e Ora | Cielo e Fenomeni | T °C | DP °C | Um. % | Pres. hPa | Vis. km | Vento km/h | |
|---|---|---|---|---|---|---|---|---|
| Oggi h: 22:40 | Molto Nuvoloso | 28 | 25 | 83 | 1012 | 10 | SO 14.8 | |
| Oggi h: 21:40 | Nuvoloso | 28 | 25 | 83 | 1011 | 10 | S/SO 16.7 | |
| Oggi h: 20:40 | Nuvoloso | 28 | 25 | 83 | 1011 | 10 | SO 16.7 | |
| Oggi h: 19:40 | Molto Nuvoloso | 28 | 25 | 83 | 1010 | 10 | SO 16.7 | |
| Oggi h: 18:40 | Nuvoloso | 28 | 25 | 83 | 1010 | 10 | SO 22.2 | |
| Oggi h: 17:40 | Nuvoloso | 29 | 24 | 74 | 1009 | 10 | SO 20.3 | |
| Oggi h: 16:40 | Molto Nuvoloso | 29 | 25 | 79 | 1009 | 10 | SO 20.3 | |
| Oggi h: 15:40 | Molto Nuvoloso | 30 | 25 | 74 | 1009 | 10 | O/SO 16.7 | |
| Oggi h: 14:40 | Molto Nuvoloso | 30 | 25 | 74 | 1009 | 10 | O/SO 18.5 | |
| Oggi h: 13:40 | Molto Nuvoloso | 30 | 25 | 74 | 1009 | 10 | O/SO 18.5 | |
| Oggi h: 12:40 | Nuvoloso | 31 | 25 | 70 | 1010 | 10 | O/SO 13 | |
| Oggi h: 11:40 | Molto Nuvoloso | 30 | 24 | 70 | 1011 | 10 | O/SO 11.1 | |
| Oggi h: 10:40 | Nuvoloso | 31 | 24 | 66 | 1011 | 10 | O/SO 11.1 | |
| Oggi h: 09:40 | Nuvoloso | 30 | 25 | 74 | 1012 | 10 | O/SO 11.1 | |
| Oggi h: 08:40 | Nuvoloso | 29 | 24 | 74 | 1013 | 10 | O/SO 13 | |
| Oggi h: 07:40 | Nuvoloso | 29 | 25 | 79 | 1012 | 10 | SO 11.1 | |
| Oggi h: 06:40 | Nuvoloso | 27 | 25 | 88 | 1011 | 10 | SO 11.1 | |
| Oggi h: 05:40 | Nuvoloso | 28 | 25 | 83 | 1011 | 10 | O/SO 11.1 | |
| Oggi h: 04:40 | Nuvoloso | 28 | 25 | 83 | 1011 | 10 | SO 13 | |
| Oggi h: 03:40 | Nuvoloso | 28 | 25 | 83 | 1011 | 10 | O/SO 11.1 | |
| Oggi h: 02:40 | Molto Nuvoloso | 28 | 26 | 88 | 1011 | 10 | SO 14.8 | |
| Oggi h: 01:40 | Molto Nuvoloso | 28 | 25 | 83 | 1011 | 10 | SO 14.8 | |
| Oggi h: 00:40 | Molto Nuvoloso | 28 | 25 | 83 | 1012 | 10 | SO 18.5 | |



